Flag for Australia Weather past 2 weeks in Uluru, Northern Territory, Australia

Now
64 °F

Mild.


Feels Like: 64 °F
Forecast: 62 / 82 °F
Wind: 5 mph from East

Location: Ayers Rock


UV Index: 5 (Moderate)

Visibility: N/A


Pressure: 30.07 "Hg

Humidity: 37%

Dew point: 37 °F

Location of UluruLocation

Historic Weather in Uluru

°F

Uluru temperature yesterday

Maximum temperature yesterday: 82 °F (at 1:30 PM)
Minimum temperature yesterday: 52 °F (at 6:30 AM)
Average temperature yesterday: 69 °F

Past Weeks' High & Low Weather Summary

 TemperatureHumidityPressure
High88 °F (Apr 5, 3:30 PM)100% (Apr 6, 10:30 AM)30.21 "Hg (Apr 6, 10:30 AM)
Low52 °F (Apr 19, 6:30 AM)15% (Apr 18, 3:30 PM)29.89 "Hg (Apr 7, 4:30 AM)
Average69 °F58%30.05 "Hg
* Reported Apr 4 11:30 PM — Apr 19 11:30 PM, Uluru, Weather by CustomWeather, © 2014

Note: Actual official high and low records may vary slightly from our data, if they occured in-between our weather recording intervals... More about our weather records

Advertising

Historic Weather Conditions — Data for Previous 24 hours

 ConditionsComfort  
Time TempWeatherWind HumidityBarometerVisibility
11:30 PM
Apr 19
64 °FMild.5 mph37%30.07 "HgN/A
10:30 PM68 °FMild.8 mph35%30.09 "HgN/A
9:30 PM70 °FMild.6 mph31%30.09 "HgN/A
8:30 PM70 °FMild.7 mph31%30.07 "HgN/A
7:30 PM72 °FMild.6 mph27%30.04 "HgN/A
6:30 PM77 °FPleasantly warm.6 mph21%30.04 "HgN/A
5:30 PM82 °FSunny.7 mph16%30.04 "HgN/A
4:30 PM82 °FSunny.7 mph15%30.04 "HgN/A
3:30 PM82 °FSunny.8 mph16%30.04 "HgN/A
2:30 PM82 °FSunny.8 mph16%30.04 "HgN/A
1:30 PM82 °FSunny.12 mph19%30.09 "HgN/A
12:30 PM79 °FSunny.13 mph21%30.12 "HgN/A
11:30 AM79 °FSunny.15 mph21%30.15 "HgN/A
10:30 AM77 °FSunny.12 mph24%30.18 "HgN/A
9:30 AM72 °FSunny.8 mph33%30.18 "HgN/A
8:30 AM63 °FMild.6 mph49%30.18 "HgN/A
7:30 AM52 °FCool.7 mph72%30.15 "HgN/A
6:30 AM52 °FCool.7 mph72%30.15 "HgN/A
5:30 AM54 °FCool.5 mph67%30.15 "HgN/A
4:30 AM57 °FRefreshingly cool.6 mph55%30.12 "HgN/A
3:30 AM55 °FCool.5 mph63%30.12 "HgN/A
2:30 AM57 °FRefreshingly cool.3 mph55%30.15 "HgN/A
1:30 AM61 °FRefreshingly cool.7 mph48%30.15 "HgN/A
12:30 AM64 °FMild.6 mph40%30.15 "HgN/A
Weather by CustomWeather, © 2014

See weather overview